Find Starlink 11537

NORAD ID: 62911 Int'l Des: 2025-027 Owner: SPXS Country: US Constellation: starlink operational
LEOCIRCULAR

Live-Position

3D-Globus wird geladen...

Über Starlink 11537

Beschreibung wird geladen...

Nächste Überflüge

Passes for default location (London). Set your location on the main map for personalized predictions.

Höhenverlauf

Loading altitude history...

Zweizeiliger Elementsatz

1 62911U 25027E 26125.03664889 .00200747 00000-0 15237-2 0 9995
2 62911 43.0001 8.0572 0002849 254.1809 105.8744 15.70943198 72053
Epoch: 5. Mai 2026 • Age: 26 hours

Aktueller Status

Höhe 357.4 km
Geschwindigkeit 7.70 km/s
Subsatellitenpunkt 31.61°N, 133.1°E
Startdatum 8. Feb. 2025
Alter 1.2 years
Typ internet

Technische Details

Klassifizierung Payload
Masse 960.00 kg
Trockenmasse 910.00 kg
Gesamtmasse 960.00 kg
Länge 0.30 m
Durchmesser 4.10 m
Spannweite 29.00 m
Form Box + pan
Hersteller SPXS
Bus-Typ Starlink V2MD
Phasenstatus In Orbit
Besitzer/Staat SPXS/US

Most Searched